SCP
0 -0 -0 -1 -1 -1 -0 -0 -0 -0 -0 -0 -0 -0 -0 -0 -0 -0 -0 -0 0 0 0 0 0 0 0 0 0 0 0 0 0 0 0 -0 -0 0 0 -0 0 0 0
-0 -0 -0 -1 -1 -1 -0 -0 -0 -0 -0 -0 -0 -0 -0 -0 -0 -0 -0 -0 0 0 0 0 0 0 0 0 0 0 0 -0 -0 -0 -0 -0 -0 0 0 0 0 0 0
0 0 -0 -0 -0 -0 -0 -0 -0 -0 -0 -0 -0 -0 -0 -0 -0 -0 -0 0 0 0 0 0 0 0 0 0 0 -0 -0 -0 -0 -0 -0 -0 0 0 0 0 0 0 0
0 0 0 -0 -0 -0 -0 -0 -0 -0 -0 -0 -0 -0 -0 -0 -0 -0 -0 -0 0 0 0 0 0 0 0 0 -0 -0 -0 -0 -0 -0 0 0 0 0 0 0 0 0 0
-0 0 0 -0 -0 -0 -0 -0 -0 -0 -0 -0 -0 -0 -0 -0 -0 -0 0 0 0 0 -0 -0 -0 0 0 0 -0 -0 -0 -0 -0 0 0 0 0 0 0 0 0 0 0
1 0 0 0 0 -0 -0 -0 -0 -0 -0 -0 -0 -0 -0 -0 -0 -0 0 0 0 -0 -0 -0 -0 0 -0 -0 -0 -0 -0 -0 -0 -0 0 0 0 0 0 0 0 0 0
1 1 1 0 0 0 -0 -0 -0 -0 -0 -0 -0 -0 -0 -0 0 -0 0 0 -0 0 0 0 0 0 0 -0 -0 -0 -0 -0 -0 0 0 0 0 0 0 0 0 0 0
2 1 1 1 1 0 0 0 0 -0 -0 -0 -0 0 -0 0 -0 -0 -0 0 0 0 0 0 0 0 0 0 -0 -0 -0 -0 -0 -0 0 0 0 0 0 0 0 0 0
1 1 1 1 1 1 1 0 0 0 0 0 0 0 0 0 0 0 0 0 0 0 0 0 0 0 0 -0 -0 -0 -0 -0 -0 -0 -0 0 0 0 0 0 0 0 0
1 1 1 2 2 2 1 1 1 0 0 0 0 0 0 0 0 0 0 0 0 0 0 0 0 0 0 0 0 0 0 0 0 -0 -0 0 0 0 0 0 0 0 0
1 1 1 2 2 2 2 2 1 1 0 0 0 0 0 0 0 0 0 0 0 0 0 0 0 0 0 0 0 0 0 0 0 0 -0 0 0 0 0 0 0 0 1
1 1 1 2 2 2 2 1 2 1 1 1 1 1 0 0 0 0 0 0 0 0 0 0 0 0 0 0 0 -0 0 0 0 0 0 0 0 0 0 0 0 0 0
0 1 1 1 1 1 1 2 1 1 1 1 0 0 0 0 0 0 0 0 0 0 0 0 0 0 0 0 0 0 0 0 0 0 0 0 0 0 0 0 0 0 0
1 1 0 0 0 0 1 1 1 1 0 0 0 0 0 0 0 0 0 0 0 0 0 0 0 0 0 0 0 0 0 0 0 0 0 0 0 0 0 0 0 0 0
1 0 0 0 0 0 1 0 0 0 0 0 0 0 0 0 0 0 0 0 0 0 0 0 0 0 0 0 0 0 0 0 0 0 0 0 0 0 0 0 1 1 1
1 1 0 0 0 0 0 0 0 0 0 0 0 0 0 0 0 0 0 0 0 0 0 0 0 0 0 0 0 0 0 0 0 0 0 0 0 0 0 1 1 1 1
-0 0 0 0 0 0 0 0 -0 0 0 1 0 0 0 0 1 1 1 1 1 1 0 0 1 2 1 0 0 0 0 0 0 0 0 0 0 1 1 0 0 0 1
0 0 0 0 0 0 0 0 2 0 0 0 0 1 1 1 0 1 0 0 0 1 1 1 1 1 1 0 0 0 0 0 0 0 0 1 0 0 0 1 0 1 1
0 0 0 0 0 0 0 0 0 0 0 0 0 0 0 0 0 0 0 0 0 -0 -0 -0 0 0 0 0 0 0 0 0 0 0 0 0 0 0 0 1 1 1 1
0 0 0 0 0 0 0 0 0 0 0 0 0 0 0 0 0 0 0 0 -0 0 0 0 0 0 -0 0 0 0 0 0 0 0 0 0 0 0 0 0 0 0 1
1 0 0 0 0 0 0 0 0 0 0 0 0 0 0 0 0 0 0 0 0 0 0 0 0 -0 0 0 0 0 0 0 0 0 0 0 0 0 0 0 0 0 0
1 0 0 -0 -0 -0 0 0 0 0 0 0 0 0 0 0 0 0 0 -0 0 0 0 0 0 0 0 0 0 0 0 0 0 0 0 0 0 0 0 0 0 0 0
2 1 -1 -1 -0 0 0 0 1 0 1 2 0 0 0 0 0 0 0 -0 0 0 0 0 0 0 0 0 0 0 0 0 0 0 0 0 0 0 0 0 0 0 0
2 2 3 1 0 -1 1 1 1 1 2 1 2 2 0 0 1 0 0 0 0 0 0 0 0 0 0 0 0 0 0 0 0 0 0 0 0 0 0 0 0 0 0
1 2 3 4 3 2 2 2 2 2 1 1 1 0 0 0 0 0 0 0 0 0 0 0 0 0 0 0 0 0 0 0 0 0 0 0 0 0 0 0 0 0 0
1 2 2 1 1 0 1 1 0 1 1 1 0 0 0 1 0 0 0 0 0 0 0 0 0 0 0 0 0 0 0 0 0 0 0 0 0 0 0 0 0 0 0
Wind_Speed_500mb
56 54 54 52 51 48 46 42 39 37 35 32 29 27 29 33 34 36 39 40 35 31 30 28 28 26 25 25 26 24 25 26 28 27 27 22 19 16 15 17 21 23 18
45 54 55 53 51 49 46 43 40 36 34 31 28 27 29 33 35 37 40 38 34 30 28 30 31 31 30 31 33 36 36 39 38 36 33 34 31 23 17 17 19 15 15
46 52 56 53 52 51 48 44 40 37 33 29 25 25 29 33 35 37 38 35 31 30 29 30 32 33 32 34 39 46 45 42 36 28 21 23 24 26 16 14 14 14 13
40 52 57 52 50 49 47 45 42 39 35 31 25 24 28 33 35 36 36 34 31 29 27 29 30 31 32 34 39 42 39 36 34 28 20 8 12 18 16 11 11 12 13
42 51 56 54 50 49 47 44 42 42 40 35 28 26 27 33 33 35 36 34 30 27 26 27 27 27 28 30 34 38 36 34 32 28 13 12 12 14 11 10 8 8 11
42 56 55 53 50 48 47 47 46 44 43 40 33 29 29 34 35 36 36 33 29 25 25 26 26 25 24 24 28 31 31 27 27 23 13 13 5 4 13 9 7 7 8
53 59 56 55 52 49 47 46 45 45 44 38 32 30 29 33 36 38 38 34 28 24 24 24 25 24 22 20 21 23 23 23 27 23 16 3 12 9 12 10 7 7 5
52 58 58 56 53 51 48 46 44 43 43 40 34 30 29 30 32 33 34 33 29 25 24 24 22 22 21 20 18 16 15 14 30 18 13 11 11 14 12 13 12 10 10
29 45 58 59 56 52 50 49 49 48 47 42 36 31 29 29 34 35 33 32 28 25 25 25 24 21 20 19 17 14 12 11 13 11 16 12 9 17 16 20 19 17 15
36 31 52 57 57 57 56 55 53 52 48 40 35 32 29 27 30 35 35 33 29 27 25 24 23 22 21 19 16 13 11 10 9 9 13 12 9 14 23 24 23 23 22
45 47 47 62 59 56 52 52 50 48 45 40 37 35 33 32 33 36 36 33 33 31 27 26 23 21 19 17 14 12 9 6 12 15 18 12 15 20 30 34 31 29 28
63 67 56 67 62 56 53 51 49 49 47 44 42 38 34 30 30 36 37 36 35 32 29 26 22 20 19 14 13 15 10 3 6 2 12 10 19 25 36 41 40 38 35
45 46 55 62 65 51 47 46 47 45 43 40 37 32 30 31 32 34 37 37 35 33 32 28 25 23 19 20 19 20 11 10 11 10 15 17 24 33 39 43 45 42 41
29 41 62 57 52 48 27 31 40 44 43 42 39 34 34 34 34 21 35 32 27 32 33 33 33 30 19 14 9 17 17 22 20 22 23 25 30 32 35 40 48 54 51
45 50 50 63 38 43 28 28 29 39 42 41 41 35 33 35 32 27 31 30 20 18 15 24 16 22 19 18 13 19 24 27 32 35 35 40 44 50 52 54 57 58 54
36 35 69 66 42 63 23 38 30 34 28 31 35 30 32 37 34 33 34 32 33 32 26 22 23 16 21 20 21 32 33 30 30 37 46 39 32 37 45 55 50 53 57
33 42 72 54 56 51 10 36 45 52 29 34 34 28 24 31 31 34 25 28 36 29 33 28 33 33 28 27 31 32 39 29 17 39 40 46 41 48 57 62 62 48 52
14 27 29 33 56 56 68 61 45 44 44 54 50 56 47 44 42 31 49 39 31 34 39 31 38 40 34 37 30 19 22 17 15 33 32 27 27 39 45 48 49 53 57
12 15 14 25 42 62 57 56 55 61 44 49 40 26 54 41 47 46 36 41 38 40 24 44 18 13 17 19 18 16 20 24 29 37 46 52 54 57 52 55 50 56 61
17 18 20 26 35 53 54 46 61 47 52 30 24 37 48 47 42 49 31 18 25 33 63 57 38 31 20 22 21 26 31 36 40 41 45 47 46 46 50 46 52 54 61
35 31 38 34 39 65 30 43 61 54 61 48 18 39 25 12 44 66 61 11 25 39 20 3 6 13 23 29 37 32 33 34 37 40 47 48 46 48 48 43 49 50 52
41 36 37 40 55 45 30 29 32 29 35 31 36 31 14 15 5 3 18 16 11 23 11 16 15 20 27 25 30 31 29 48 52 52 49 48 55 61 64 63 61 64 68
53 54 48 59 54 48 38 36 20 27 22 29 28 23 18 18 13 15 18 20 24 24 34 26 22 18 22 27 29 29 25 34 65 66 66 62 64 62 63 59 59 55 45
56 48 53 57 58 51 45 52 41 40 45 32 26 27 29 28 30 28 33 31 33 30 23 19 17 19 26 33 40 41 44 49 57 74 68 71 65 53 62 69 61 53 48
56 52 51 50 45 44 47 41 36 40 33 27 23 34 24 31 29 22 21 25 23 21 19 19 23 30 36 44 48 55 61 65 68 71 73 73 75 73 64 58 52 57 53
67 59 47 43 38 36 36 32 30 23 23 34 38 31 26 23 20 18 17 15 15 17 22 32 39 43 49 52 55 57 60 64 66 69 74 67 70 70 68 67 64 63 61
Wind_Direction_500mb
164 159 160 160 158 155 153 149 149 146 142 136 132 129 135 135 134 134 135 134 130 124 115 114 115 118 116 114 113 113 108 105 104 100 85 73 65 64 71 73 83 78 77
170 164 166 164 162 160 158 154 156 154 151 144 137 133 135 136 136 137 139 138 132 124 116 114 117 118 116 113 109 108 108 107 100 98 83 71 63 48 58 70 74 83 87
174 171 170 168 166 164 163 160 161 160 157 151 144 138 138 141 140 141 143 141 135 125 120 120 122 122 118 113 109 110 109 103 95 84 73 75 59 46 38 63 81 87 88
176 176 171 170 169 167 166 164 165 166 164 161 154 146 145 148 146 144 146 145 137 130 127 127 129 128 124 119 117 117 113 105 95 79 60 50 65 28 22 41 67 86 83
184 180 172 172 172 172 170 170 171 172 170 168 162 156 153 154 152 151 152 148 143 139 137 138 140 137 131 128 126 129 120 113 110 102 106 62 50 353 14 29 48 72 83
189 180 174 175 174 176 176 176 175 178 177 174 170 166 162 161 159 160 159 155 151 150 150 151 152 152 149 145 138 140 141 125 121 115 123 57 323 299 346 3 17 41 59
187 180 177 178 177 179 181 181 180 181 180 181 178 173 169 169 168 166 166 162 162 163 164 167 166 167 166 164 156 152 154 151 138 131 131 159 307 314 323 330 340 344 2
187 181 182 181 179 181 182 182 180 184 184 184 186 183 177 176 179 175 174 174 175 174 176 178 179 180 182 184 185 178 170 159 155 155 147 179 280 314 317 320 314 312 309
183 187 189 184 182 183 183 183 183 185 187 188 191 192 189 186 185 185 185 184 183 184 184 189 191 194 196 200 202 204 203 200 194 184 188 208 233 282 305 309 303 298 291
190 198 203 193 188 186 186 185 186 186 189 192 194 197 199 199 196 194 193 191 192 190 194 200 203 206 210 213 217 223 235 247 249 232 165 230 246 272 300 303 299 290 287
207 219 218 201 193 191 189 187 188 190 191 195 198 203 207 207 202 202 202 199 199 198 202 204 212 218 223 228 232 232 237 295 275 256 214 223 277 275 287 296 298 290 280
228 218 218 203 196 193 191 192 191 195 197 199 202 205 210 216 215 206 205 207 208 210 211 213 216 226 235 241 246 238 245 283 334 343 235 278 290 283 285 290 296 294 287
231 222 202 202 195 192 202 198 198 204 206 208 206 213 221 217 212 212 214 214 216 223 223 224 229 233 245 251 249 224 244 254 271 275 289 301 290 280 284 290 292 292 289
251 192 186 180 171 170 211 217 215 211 210 208 210 211 217 219 204 207 216 214 224 234 235 230 234 237 230 230 245 246 257 259 273 273 276 271 268 271 277 282 289 293 291
180 165 165 163 139 155 177 235 231 231 223 218 219 215 216 210 204 211 237 227 222 225 242 227 238 232 232 240 268 303 292 277 274 268 266 266 271 274 278 284 288 285 286
197 194 201 170 173 177 167 207 242 235 219 226 229 229 227 215 203 217 239 244 252 259 245 246 252 253 245 237 238 244 255 260 259 272 274 277 287 287 292 293 288 292 291
151 178 186 186 209 216 286 186 214 229 231 220 219 219 215 215 203 220 233 238 252 263 260 249 237 225 214 216 233 258 259 276 290 322 286 288 295 300 290 290 281 287 296
141 170 196 224 234 191 199 180 224 234 225 221 212 227 220 206 209 223 223 224 222 241 245 238 236 245 246 252 249 289 328 310 278 279 283 297 301 301 298 311 302 292 292
180 165 179 188 203 207 200 211 192 213 211 209 216 197 223 222 215 216 237 248 336 289 295 352 273 327 238 312 288 274 288 291 294 289 287 288 294 296 302 305 299 295 291
173 153 164 183 190 202 179 202 203 216 224 214 246 280 264 262 255 256 229 317 284 284 271 281 292 325 320 262 277 286 281 279 283 286 291 290 297 297 298 292 294 287 290
164 144 138 144 176 158 185 207 219 228 225 222 210 256 267 286 253 247 234 246 266 286 278 185 258 215 251 288 300 306 306 307 305 313 307 300 291 288 284 285 292 293 291
162 150 143 142 153 177 173 166 152 184 205 198 224 230 257 290 219 173 202 173 201 237 230 196 222 271 283 292 312 314 313 314 319 316 313 301 295 294 292 289 291 293 290
153 149 147 159 163 172 167 163 153 176 188 205 194 221 241 213 216 187 184 176 193 203 223 243 268 285 290 301 299 296 292 298 310 305 307 305 303 299 297 301 304 304 296
160 160 155 162 164 159 180 179 184 198 196 205 221 203 198 197 189 199 201 209 219 227 236 244 247 254 268 283 292 294 288 288 295 300 299 300 302 293 289 290 292 281 280
170 168 161 158 166 179 183 184 181 187 190 189 197 193 188 177 175 191 208 224 224 228 249 270 283 292 293 292 292 296 296 294 294 292 297 297 294 293 297 293 297 290 295
161 154 164 173 178 191 194 204 217 201 193 165 164 171 178 181 175 192 211 224 244 271 281 286 288 288 288 288 288 290 291 293 297 298 298 295 292 293 292 289 285 290 286
Wind_Speed_850mb
56 54 54 52 51 48 46 42 39 37 35 32 29 27 29 33 34 36 39 40 35 31 30 28 28 26 25 25 26 24 25 26 28 27 27 22 19 16 15 17 21 23 18
45 54 55 53 51 49 46 43 40 36 34 31 28 27 29 33 35 37 40 38 34 30 28 30 31 31 30 31 33 36 36 39 38 36 33 34 31 23 17 17 19 15 15
46 52 56 53 52 51 48 44 40 37 33 29 25 25 29 33 35 37 38 35 31 30 29 30 32 33 32 34 39 46 45 42 36 28 21 23 24 26 16 14 14 14 13
40 52 57 52 50 49 47 45 42 39 35 31 25 24 28 33 35 36 36 34 31 29 27 29 30 31 32 34 39 42 39 36 34 28 20 8 12 18 16 11 11 12 13
42 51 56 54 50 49 47 44 42 42 40 35 28 26 27 33 33 35 36 34 30 27 26 27 27 27 28 30 34 38 36 34 32 28 13 12 12 14 11 10 8 8 11
42 56 55 53 50 48 47 47 46 44 43 40 33 29 29 34 35 36 36 33 29 25 25 26 26 25 24 24 28 31 31 27 27 23 13 13 5 4 13 9 7 7 8
53 59 56 55 52 49 47 46 45 45 44 38 32 30 29 33 36 38 38 34 28 24 24 24 25 24 22 20 21 23 23 23 27 23 16 3 12 9 12 10 7 7 5
52 58 58 56 53 51 48 46 44 43 43 40 34 30 29 30 32 33 34 33 29 25 24 24 22 22 21 20 18 16 15 14 30 18 13 11 11 14 12 13 12 10 10
29 45 58 59 56 52 50 49 49 48 47 42 36 31 29 29 34 35 33 32 28 25 25 25 24 21 20 19 17 14 12 11 13 11 16 12 9 17 16 20 19 17 15
36 31 52 57 57 57 56 55 53 52 48 40 35 32 29 27 30 35 35 33 29 27 25 24 23 22 21 19 16 13 11 10 9 9 13 12 9 14 23 24 23 23 22
45 47 47 62 59 56 52 52 50 48 45 40 37 35 33 32 33 36 36 33 33 31 27 26 23 21 19 17 14 12 9 6 12 15 18 12 15 20 30 34 31 29 28
63 67 56 67 62 56 53 51 49 49 47 44 42 38 34 30 30 36 37 36 35 32 29 26 22 20 19 14 13 15 10 3 6 2 12 10 19 25 36 41 40 38 35
45 46 55 62 65 51 47 46 47 45 43 40 37 32 30 31 32 34 37 37 35 33 32 28 25 23 19 20 19 20 11 10 11 10 15 17 24 33 39 43 45 42 41
29 41 62 57 52 48 27 31 40 44 43 42 39 34 34 34 34 21 35 32 27 32 33 33 33 30 19 14 9 17 17 22 20 22 23 25 30 32 35 40 48 54 51
45 50 50 63 38 43 28 28 29 39 42 41 41 35 33 35 32 27 31 30 20 18 15 24 16 22 19 18 13 19 24 27 32 35 35 40 44 50 52 54 57 58 54
36 35 69 66 42 63 23 38 30 34 28 31 35 30 32 37 34 33 34 32 33 32 26 22 23 16 21 20 21 32 33 30 30 37 46 39 32 37 45 55 50 53 57
33 42 72 54 56 51 10 36 45 52 29 34 34 28 24 31 31 34 25 28 36 29 33 28 33 33 28 27 31 32 39 29 17 39 40 46 41 48 57 62 62 48 52
14 27 29 33 56 56 68 61 45 44 44 54 50 56 47 44 42 31 49 39 31 34 39 31 38 40 34 37 30 19 22 17 15 33 32 27 27 39 45 48 49 53 57
12 15 14 25 42 62 57 56 55 61 44 49 40 26 54 41 47 46 36 41 38 40 24 44 18 13 17 19 18 16 20 24 29 37 46 52 54 57 52 55 50 56 61
17 18 20 26 35 53 54 46 61 47 52 30 24 37 48 47 42 49 31 18 25 33 63 57 38 31 20 22 21 26 31 36 40 41 45 47 46 46 50 46 52 54 61
35 31 38 34 39 65 30 43 61 54 61 48 18 39 25 12 44 66 61 11 25 39 20 3 6 13 23 29 37 32 33 34 37 40 47 48 46 48 48 43 49 50 52
41 36 37 40 55 45 30 29 32 29 35 31 36 31 14 15 5 3 18 16 11 23 11 16 15 20 27 25 30 31 29 48 52 52 49 48 55 61 64 63 61 64 68
53 54 48 59 54 48 38 36 20 27 22 29 28 23 18 18 13 15 18 20 24 24 34 26 22 18 22 27 29 29 25 34 65 66 66 62 64 62 63 59 59 55 45
56 48 53 57 58 51 45 52 41 40 45 32 26 27 29 28 30 28 33 31 33 30 23 19 17 19 26 33 40 41 44 49 57 74 68 71 65 53 62 69 61 53 48
56 52 51 50 45 44 47 41 36 40 33 27 23 34 24 31 29 22 21 25 23 21 19 19 23 30 36 44 48 55 61 65 68 71 73 73 75 73 64 58 52 57 53
67 59 47 43 38 36 36 32 30 23 23 34 38 31 26 23 20 18 17 15 15 17 22 32 39 43 49 52 55 57 60 64 66 69 74 67 70 70 68 67 64 63 61
Wind_Direction_850mb
164 159 160 160 158 155 153 149 149 146 142 136 132 129 135 135 134 134 135 134 130 124 115 114 115 118 116 114 113 113 108 105 104 100 85 73 65 64 71 73 83 78 77
170 164 166 164 162 160 158 154 156 154 151 144 137 133 135 136 136 137 139 138 132 124 116 114 117 118 116 113 109 108 108 107 100 98 83 71 63 48 58 70 74 83 87
174 171 170 168 166 164 163 160 161 160 157 151 144 138 138 141 140 141 143 141 135 125 120 120 122 122 118 113 109 110 109 103 95 84 73 75 59 46 38 63 81 87 88
176 176 171 170 169 167 166 164 165 166 164 161 154 146 145 148 146 144 146 145 137 130 127 127 129 128 124 119 117 117 113 105 95 79 60 50 65 28 22 41 67 86 83
184 180 172 172 172 172 170 170 171 172 170 168 162 156 153 154 152 151 152 148 143 139 137 138 140 137 131 128 126 129 120 113 110 102 106 62 50 353 14 29 48 72 83
189 180 174 175 174 176 176 176 175 178 177 174 170 166 162 161 159 160 159 155 151 150 150 151 152 152 149 145 138 140 141 125 121 115 123 57 323 299 346 3 17 41 59
187 180 177 178 177 179 181 181 180 181 180 181 178 173 169 169 168 166 166 162 162 163 164 167 166 167 166 164 156 152 154 151 138 131 131 159 307 314 323 330 340 344 2
187 181 182 181 179 181 182 182 180 184 184 184 186 183 177 176 179 175 174 174 175 174 176 178 179 180 182 184 185 178 170 159 155 155 147 179 280 314 317 320 314 312 309
183 187 189 184 182 183 183 183 183 185 187 188 191 192 189 186 185 185 185 184 183 184 184 189 191 194 196 200 202 204 203 200 194 184 188 208 233 282 305 309 303 298 291
190 198 203 193 188 186 186 185 186 186 189 192 194 197 199 199 196 194 193 191 192 190 194 200 203 206 210 213 217 223 235 247 249 232 165 230 246 272 300 303 299 290 287
207 219 218 201 193 191 189 187 188 190 191 195 198 203 207 207 202 202 202 199 199 198 202 204 212 218 223 228 232 232 237 295 275 256 214 223 277 275 287 296 298 290 280
228 218 218 203 196 193 191 192 191 195 197 199 202 205 210 216 215 206 205 207 208 210 211 213 216 226 235 241 246 238 245 283 334 343 235 278 290 283 285 290 296 294 287
231 222 202 202 195 192 202 198 198 204 206 208 206 213 221 217 212 212 214 214 216 223 223 224 229 233 245 251 249 224 244 254 271 275 289 301 290 280 284 290 292 292 289
251 192 186 180 171 170 211 217 215 211 210 208 210 211 217 219 204 207 216 214 224 234 235 230 234 237 230 230 245 246 257 259 273 273 276 271 268 271 277 282 289 293 291
180 165 165 163 139 155 177 235 231 231 223 218 219 215 216 210 204 211 237 227 222 225 242 227 238 232 232 240 268 303 292 277 274 268 266 266 271 274 278 284 288 285 286
197 194 201 170 173 177 167 207 242 235 219 226 229 229 227 215 203 217 239 244 252 259 245 246 252 253 245 237 238 244 255 260 259 272 274 277 287 287 292 293 288 292 291
151 178 186 186 209 216 286 186 214 229 231 220 219 219 215 215 203 220 233 238 252 263 260 249 237 225 214 216 233 258 259 276 290 322 286 288 295 300 290 290 281 287 296
141 170 196 224 234 191 199 180 224 234 225 221 212 227 220 206 209 223 223 224 222 241 245 238 236 245 246 252 249 289 328 310 278 279 283 297 301 301 298 311 302 292 292
180 165 179 188 203 207 200 211 192 213 211 209 216 197 223 222 215 216 237 248 336 289 295 352 273 327 238 312 288 274 288 291 294 289 287 288 294 296 302 305 299 295 291
173 153 164 183 190 202 179 202 203 216 224 214 246 280 264 262 255 256 229 317 284 284 271 281 292 325 320 262 277 286 281 279 283 286 291 290 297 297 298 292 294 287 290
164 144 138 144 176 158 185 207 219 228 225 222 210 256 267 286 253 247 234 246 266 286 278 185 258 215 251 288 300 306 306 307 305 313 307 300 291 288 284 285 292 293 291
162 150 143 142 153 177 173 166 152 184 205 198 224 230 257 290 219 173 202 173 201 237 230 196 222 271 283 292 312 314 313 314 319 316 313 301 295 294 292 289 291 293 290
153 149 147 159 163 172 167 163 153 176 188 205 194 221 241 213 216 187 184 176 193 203 223 243 268 285 290 301 299 296 292 298 310 305 307 305 303 299 297 301 304 304 296
160 160 155 162 164 159 180 179 184 198 196 205 221 203 198 197 189 199 201 209 219 227 236 244 247 254 268 283 292 294 288 288 295 300 299 300 302 293 289 290 292 281 280
170 168 161 158 166 179 183 184 181 187 190 189 197 193 188 177 175 191 208 224 224 228 249 270 283 292 293 292 292 296 296 294 294 292 297 297 294 293 297 293 297 290 295
161 154 164 173 178 191 194 204 217 201 193 165 164 171 178 181 175 192 211 224 244 271 281 286 288 288 288 288 288 290 291 293 297 298 298 295 292 293 292 289 285 290 286